contact:dominique.lefevre@mio.osupytheas.fr, maurice.libes@osupytheas.fr, didier.mallarino@osupytheas.fr
Project:EMSO http://www.emso-fr.org/EMSO-France
Depth: 2436.0 m
Title:EMSO Ligure Ouest : Data MII capteur MICROCAT
DateTime_Computer,Latitude,Longitude,Temperature,Conductivity,Pressure,DateTime_Instrument
DateTime_Computer,Latitude,Longitude,degC,S m-1,dbar,DateTime_Instrument
2023-07-13T00:01:55Z,42.805,6.029,13.3028,4.60091,2470.707,2023-7-13T02:04:12Z
2023-07-13T00:04:59Z,42.805,6.029,13.3026,4.60089,2470.707,2023-7-13T02:07:15Z
2023-07-13T00:08:02Z,42.805,6.029,13.3029,4.60089,2470.703,2023-7-13T02:10:18Z
2023-07-13T00:11:05Z,42.805,6.029,13.3027,4.60092,2470.707,2023-7-13T02:13:21Z
2023-07-13T00:14:08Z,42.805,6.029,13.3026,4.60088,2470.693,2023-7-13T02:16:24Z
2023-07-13T00:17:11Z,42.805,6.029,13.3028,4.60088,2470.707,2023-7-13T02:19:27Z
2023-07-13T00:20:14Z,42.805,6.029,13.3028,4.60089,2470.707,2023-7-13T02:22:30Z
2023-07-13T00:23:17Z,42.805,6.029,13.3026,4.60090,2470.707,2023-7-13T02:25:33Z
2023-07-13T00:26:20Z,42.805,6.029,13.3024,4.60088,2470.693,2023-7-13T02:28:37Z
2023-07-13T00:29:23Z,42.805,6.029,13.3027,4.60091,2470.707,2023-7-13T02:31:40Z
2023-07-13T00:32:26Z,42.805,6.029,13.3029,4.60090,2470.73,2023-7-13T02:34:43Z
2023-07-13T00:35:29Z,42.805,6.029,13.3029,4.60089,2470.693,2023-7-13T02:37:46Z
2023-07-13T00:38:32Z,42.805,6.029,13.3027,4.60089,2470.67,2023-7-13T02:40:49Z
2023-07-13T00:41:36Z,42.805,6.029,13.3029,4.60089,2470.717,2023-7-13T02:43:52Z
2023-07-13T00:44:39Z,42.805,6.029,13.3026,4.60089,2470.693,2023-7-13T02:46:55Z
2023-07-13T00:47:42Z,42.805,6.029,13.3027,4.60088,2470.707,2023-7-13T02:49:58Z
2023-07-13T00:50:45Z,42.805,6.029,13.3026,4.60089,2470.717,2023-7-13T02:53:01Z
2023-07-13T00:53:48Z,42.805,6.029,13.3031,4.60088,2470.717,2023-7-13T02:56:04Z
2023-07-13T00:56:51Z,42.805,6.029,13.3028,4.60089,2470.693,2023-7-13T02:59:07Z
2023-07-13T00:59:54Z,42.805,6.029,13.3029,4.60089,2470.73,2023-7-13T03:02:10Z
2023-07-13T01:02:57Z,42.805,6.029,13.3029,4.60090,2470.74,2023-7-13T03:05:14Z
2023-07-13T01:06:00Z,42.805,6.029,13.3025,4.60092,2470.73,2023-7-13T03:08:17Z
2023-07-13T01:09:03Z,42.805,6.029,13.3031,4.60095,2470.717,2023-7-13T03:11:20Z
2023-07-13T01:12:06Z,42.805,6.029,13.3035,4.60091,2470.717,2023-7-13T03:14:23Z
2023-07-13T01:15:09Z,42.805,6.029,13.3031,4.60091,2470.754,2023-7-13T03:17:26Z
2023-07-13T01:18:13Z,42.805,6.029,13.3032,4.60091,2470.717,2023-7-13T03:20:29Z
2023-07-13T01:21:16Z,42.805,6.029,13.3039,4.60090,2470.754,2023-7-13T03:23:32Z
2023-07-13T01:24:19Z,42.805,6.029,13.3026,4.60088,2470.717,2023-7-13T03:26:35Z
2023-07-13T01:27:22Z,42.805,6.029,13.3026,4.60089,2470.717,2023-7-13T03:29:38Z
2023-07-13T01:30:25Z,42.805,6.029,13.3031,4.60091,2470.754,2023-7-13T03:32:41Z
2023-07-13T01:33:28Z,42.805,6.029,13.3029,4.60088,2470.73,2023-7-13T03:35:44Z
2023-07-13T01:36:31Z,42.805,6.029,13.3029,4.60090,2470.74,2023-7-13T03:38:47Z
2023-07-13T01:39:34Z,42.805,6.029,13.3031,4.60093,2470.754,2023-7-13T03:41:51Z
2023-07-13T01:42:37Z,42.805,6.029,13.3030,4.60089,2470.717,2023-7-13T03:44:54Z
2023-07-13T01:45:40Z,42.805,6.029,13.3028,4.60089,2470.74,2023-7-13T03:47:57Z
2023-07-13T01:48:43Z,42.805,6.029,13.3029,4.60089,2470.74,2023-7-13T03:51:00Z
2023-07-13T01:51:46Z,42.805,6.029,13.3029,4.60092,2470.717,2023-7-13T03:54:03Z
2023-07-13T01:54:50Z,42.805,6.029,13.3030,4.60090,2470.717,2023-7-13T03:57:06Z
2023-07-13T01:57:53Z,42.805,6.029,13.3027,4.60090,2470.74,2023-7-13T04:00:09Z
2023-07-13T02:00:56Z,42.805,6.029,13.3026,4.60089,2470.74,2023-7-13T04:03:12Z
2023-07-13T02:03:59Z,42.805,6.029,13.3025,4.60087,2470.74,2023-7-13T04:06:15Z
2023-07-13T02:07:02Z,42.805,6.029,13.3024,4.60088,2470.763,2023-7-13T04:09:18Z
2023-07-13T02:10:05Z,42.805,6.029,13.3027,4.60090,2470.74,2023-7-13T04:12:21Z
2023-07-13T02:13:08Z,42.805,6.029,13.3028,4.60092,2470.74,2023-7-13T04:15:24Z
2023-07-13T02:16:11Z,42.805,6.029,13.3031,4.60092,2470.717,2023-7-13T04:18:28Z
2023-07-13T02:19:14Z,42.805,6.029,13.3032,4.60094,2470.73,2023-7-13T04:21:31Z
2023-07-13T02:22:17Z,42.805,6.029,13.3032,4.60092,2470.763,2023-7-13T04:24:34Z
2023-07-13T02:25:20Z,42.805,6.029,13.3030,4.60091,2470.763,2023-7-13T04:27:37Z
2023-07-13T02:28:23Z,42.805,6.029,13.3031,4.60089,2470.777,2023-7-13T04:30:40Z
2023-07-13T02:31:27Z,42.805,6.029,13.3030,4.60092,2470.74,2023-7-13T04:33:43Z
2023-07-13T02:34:30Z,42.805,6.029,13.3029,4.60093,2470.754,2023-7-13T04:36:46Z
2023-07-13T02:37:33Z,42.805,6.029,13.3026,4.60089,2470.777,2023-7-13T04:39:49Z
2023-07-13T02:40:36Z,42.805,6.029,13.3024,4.60091,2470.8,2023-7-13T04:42:52Z
2023-07-13T02:43:39Z,42.805,6.029,13.3029,4.60088,2470.777,2023-7-13T04:45:55Z
2023-07-13T02:46:42Z,42.805,6.029,13.3031,4.60090,2470.74,2023-7-13T04:48:58Z
2023-07-13T02:49:45Z,42.805,6.029,13.3029,4.60095,2470.791,2023-7-13T04:52:01Z
2023-07-13T02:52:48Z,42.805,6.029,13.3028,4.60091,2470.74,2023-7-13T04:55:05Z
2023-07-13T02:55:51Z,42.805,6.029,13.3034,4.60090,2470.763,2023-7-13T04:58:08Z
2023-07-13T02:58:54Z,42.805,6.029,13.3034,4.60092,2470.754,2023-7-13T05:01:11Z
2023-07-13T03:01:57Z,42.805,6.029,13.3031,4.60092,2470.74,2023-7-13T05:04:14Z
2023-07-13T03:05:00Z,42.805,6.029,13.3033,4.60099,2470.74,2023-7-13T05:07:17Z
2023-07-13T03:08:04Z,42.805,6.029,13.3033,4.60092,2470.754,2023-7-13T05:10:20Z
2023-07-13T03:11:07Z,42.805,6.029,13.3029,4.60091,2470.74,2023-7-13T05:13:23Z
2023-07-13T03:14:10Z,42.805,6.029,13.3033,4.60092,2470.777,2023-7-13T05:16:26Z
2023-07-13T03:17:13Z,42.805,6.029,13.3031,4.60090,2470.74,2023-7-13T05:19:29Z
2023-07-13T03:20:16Z,42.805,6.029,13.3028,4.60091,2470.763,2023-7-13T05:22:32Z
2023-07-13T03:23:19Z,42.805,6.029,13.3028,4.60094,2470.754,2023-7-13T05:25:35Z
2023-07-13T03:26:22Z,42.805,6.029,13.3029,4.60092,2470.8,2023-7-13T05:28:38Z
2023-07-13T03:29:25Z,42.805,6.029,13.3030,4.60089,2470.787,2023-7-13T05:31:42Z
2023-07-13T03:32:28Z,42.805,6.029,13.3027,4.60089,2470.74,2023-7-13T05:34:45Z
2023-07-13T03:35:31Z,42.805,6.029,13.3031,4.60089,2470.717,2023-7-13T05:37:48Z
2023-07-13T03:38:34Z,42.805,6.029,13.3026,4.60088,2470.763,2023-7-13T05:40:51Z
2023-07-13T03:41:37Z,42.805,6.029,13.3031,4.60088,2470.717,2023-7-13T05:43:54Z
2023-07-13T03:44:40Z,42.805,6.029,13.3029,4.60090,2470.763,2023-7-13T05:46:57Z
2023-07-13T03:47:44Z,42.805,6.029,13.3030,4.60089,2470.787,2023-7-13T05:50:00Z
2023-07-13T03:50:47Z,42.805,6.029,13.3026,4.60092,2470.787,2023-7-13T05:53:03Z
2023-07-13T03:53:50Z,42.805,6.029,13.3029,4.60088,2470.74,2023-7-13T05:56:06Z
2023-07-13T03:56:53Z,42.805,6.029,13.3025,4.60088,2470.74,2023-7-13T05:59:09Z
2023-07-13T03:59:56Z,42.805,6.029,13.3031,4.60087,2470.754,2023-7-13T06:02:12Z
2023-07-13T04:02:59Z,42.805,6.029,13.3029,4.60093,2470.8,2023-7-13T06:05:15Z
2023-07-13T04:06:02Z,42.805,6.029,13.3028,4.60089,2470.777,2023-7-13T06:08:19Z
2023-07-13T04:09:05Z,42.805,6.029,13.3029,4.60088,2470.717,2023-7-13T06:11:22Z
2023-07-13T04:12:08Z,42.805,6.029,13.3026,4.60090,2470.763,2023-7-13T06:14:25Z
2023-07-13T04:15:11Z,42.805,6.029,13.3028,4.60090,2470.763,2023-7-13T06:17:28Z
2023-07-13T04:18:14Z,42.805,6.029,13.3028,4.60088,2470.754,2023-7-13T06:20:31Z
2023-07-13T04:21:17Z,42.805,6.029,13.3028,4.60088,2470.777,2023-7-13T06:23:34Z
2023-07-13T04:24:21Z,42.805,6.029,13.3025,4.60093,2470.717,2023-7-13T06:26:37Z
2023-07-13T04:27:24Z,42.805,6.029,13.3029,4.60088,2470.74,2023-7-13T06:29:40Z
2023-07-13T04:30:27Z,42.805,6.029,13.3028,4.60087,2470.787,2023-7-13T06:32:43Z
2023-07-13T04:33:30Z,42.805,6.029,13.3033,4.60088,2470.717,2023-7-13T06:35:46Z
2023-07-13T04:36:33Z,42.805,6.029,13.3026,4.60090,2470.74,2023-7-13T06:38:49Z
2023-07-13T04:39:36Z,42.805,6.029,13.3026,4.60092,2470.74,2023-7-13T06:41:52Z
2023-07-13T04:42:39Z,42.805,6.029,13.3026,4.60087,2470.74,2023-7-13T06:44:56Z
2023-07-13T04:45:42Z,42.805,6.029,13.3026,4.60092,2470.73,2023-7-13T06:47:59Z
2023-07-13T04:48:45Z,42.805,6.029,13.3029,4.60087,2470.73,2023-7-13T06:51:02Z
2023-07-13T04:51:48Z,42.805,6.029,13.3028,4.60089,2470.763,2023-7-13T06:54:05Z
2023-07-13T04:54:51Z,42.805,6.029,13.3026,4.60089,2470.754,2023-7-13T06:57:08Z
2023-07-13T04:57:54Z,42.805,6.029,13.3031,4.60090,2470.777,2023-7-13T07:00:11Z
2023-07-13T05:00:58Z,42.805,6.029,13.3026,4.60089,2470.74,2023-7-13T07:03:14Z
2023-07-13T05:04:01Z,42.805,6.029,13.3031,4.60091,2470.74,2023-7-13T07:06:17Z
2023-07-13T05:07:04Z,42.805,6.029,13.3027,4.60087,2470.754,2023-7-13T07:09:20Z
2023-07-13T05:10:07Z,42.805,6.029,13.3029,4.60088,2470.754,2023-7-13T07:12:23Z
2023-07-13T05:13:10Z,42.805,6.029,13.3029,4.60089,2470.726,2023-7-13T07:15:26Z
2023-07-13T05:16:13Z,42.805,6.029,13.3026,4.60088,2470.777,2023-7-13T07:18:29Z
2023-07-13T05:19:16Z,42.805,6.029,13.3032,4.60089,2470.763,2023-7-13T07:21:33Z
2023-07-13T05:22:19Z,42.805,6.029,13.3031,4.60096,2470.74,2023-7-13T07:24:36Z
2023-07-13T05:25:22Z,42.805,6.029,13.3030,4.60089,2470.763,2023-7-13T07:27:39Z
2023-07-13T05:28:25Z,42.805,6.029,13.3032,4.60090,2470.73,2023-7-13T07:30:42Z
2023-07-13T05:31:28Z,42.805,6.029,13.3031,4.60091,2470.717,2023-7-13T07:33:45Z
2023-07-13T05:34:31Z,42.805,6.029,13.3028,4.60089,2470.754,2023-7-13T07:36:48Z
2023-07-13T05:37:35Z,42.805,6.029,13.3031,4.60089,2470.754,2023-7-13T07:39:51Z
2023-07-13T05:40:38Z,42.805,6.029,13.3029,4.60091,2470.717,2023-7-13T07:42:54Z
2023-07-13T05:43:41Z,42.805,6.029,13.3027,4.60090,2470.717,2023-7-13T07:45:57Z
2023-07-13T05:46:44Z,42.805,6.029,13.3030,4.60089,2470.763,2023-7-13T07:49:00Z
2023-07-13T05:49:47Z,42.805,6.029,13.3031,4.60088,2470.74,2023-7-13T07:52:03Z
2023-07-13T05:52:50Z,42.805,6.029,13.3029,4.60088,2470.73,2023-7-13T07:55:06Z
2023-07-13T05:55:53Z,42.805,6.029,13.3031,4.60090,2470.703,2023-7-13T07:58:10Z
2023-07-13T05:58:56Z,42.805,6.029,13.3029,4.60087,2470.73,2023-7-13T08:01:13Z
2023-07-13T06:01:59Z,42.805,6.029,13.3029,4.60088,2470.717,2023-7-13T08:04:16Z
2023-07-13T06:05:02Z,42.805,6.029,13.3026,4.60092,2470.74,2023-7-13T08:07:19Z
2023-07-13T06:08:05Z,42.805,6.029,13.3027,4.60089,2470.707,2023-7-13T08:10:22Z
2023-07-13T06:11:08Z,42.805,6.029,13.3031,4.60088,2470.73,2023-7-13T08:13:25Z
2023-07-13T06:14:12Z,42.805,6.029,13.3027,4.60087,2470.717,2023-7-13T08:16:28Z
2023-07-13T06:17:15Z,42.805,6.029,13.3026,4.60087,2470.717,2023-7-13T08:19:31Z
2023-07-13T06:20:18Z,42.805,6.029,13.3028,4.60089,2470.74,2023-7-13T08:22:34Z
2023-07-13T06:23:21Z,42.805,6.029,13.3029,4.60093,2470.754,2023-7-13T08:25:37Z
2023-07-13T06:26:24Z,42.805,6.029,13.3028,4.60087,2470.717,2023-7-13T08:28:40Z
2023-07-13T06:29:27Z,42.805,6.029,13.3029,4.60092,2470.74,2023-7-13T08:31:43Z
2023-07-13T06:32:30Z,42.805,6.029,13.3026,4.60090,2470.693,2023-7-13T08:34:47Z
2023-07-13T06:35:33Z,42.805,6.029,13.3030,4.60091,2470.717,2023-7-13T08:37:50Z
2023-07-13T06:38:36Z,42.805,6.029,13.3024,4.60087,2470.74,2023-7-13T08:40:53Z
2023-07-13T06:41:39Z,42.805,6.029,13.3026,4.60088,2470.717,2023-7-13T08:43:56Z
2023-07-13T06:44:42Z,42.805,6.029,13.3027,4.60088,2470.717,2023-7-13T08:46:59Z
2023-07-13T06:47:45Z,42.805,6.029,13.3030,4.60087,2470.73,2023-7-13T08:50:02Z
2023-07-13T06:50:49Z,42.805,6.029,13.3027,4.60092,2470.684,2023-7-13T08:53:05Z
2023-07-13T06:53:52Z,42.805,6.029,13.3025,4.60087,2470.679,2023-7-13T08:56:08Z
2023-07-13T06:56:55Z,42.805,6.029,13.3026,4.60088,2470.74,2023-7-13T08:59:11Z
2023-07-13T06:59:58Z,42.805,6.029,13.3029,4.60089,2470.73,2023-7-13T09:02:14Z
2023-07-13T07:03:01Z,42.805,6.029,13.3032,4.60092,2470.717,2023-7-13T09:05:17Z
2023-07-13T07:06:04Z,42.805,6.029,13.3035,4.60090,2470.717,2023-7-13T09:08:20Z
2023-07-13T07:09:07Z,42.805,6.029,13.3029,4.60094,2470.73,2023-7-13T09:11:24Z
2023-07-13T07:12:10Z,42.805,6.029,13.3029,4.60093,2470.693,2023-7-13T09:14:27Z
2023-07-13T07:15:13Z,42.805,6.029,13.3030,4.60087,2470.717,2023-7-13T09:17:30Z
2023-07-13T07:18:16Z,42.805,6.029,13.3028,4.60089,2470.717,2023-7-13T09:20:33Z
2023-07-13T07:21:19Z,42.805,6.029,13.3031,4.60088,2470.707,2023-7-13T09:23:36Z
2023-07-13T07:24:22Z,42.805,6.029,13.3031,4.60091,2470.693,2023-7-13T09:26:39Z
2023-07-13T07:27:26Z,42.805,6.029,13.3032,4.60092,2470.707,2023-7-13T09:29:42Z
2023-07-13T07:30:29Z,42.805,6.029,13.3027,4.60089,2470.67,2023-7-13T09:32:45Z
2023-07-13T07:33:32Z,42.805,6.029,13.3027,4.60090,2470.693,2023-7-13T09:35:48Z
2023-07-13T07:36:35Z,42.805,6.029,13.3028,4.60089,2470.73,2023-7-13T09:38:51Z
2023-07-13T07:39:38Z,42.805,6.029,13.3032,4.60087,2470.67,2023-7-13T09:41:54Z
2023-07-13T07:42:41Z,42.805,6.029,13.3029,4.60087,2470.679,2023-7-13T09:44:57Z
2023-07-13T07:45:44Z,42.805,6.029,13.3029,4.60087,2470.67,2023-7-13T09:48:01Z
2023-07-13T07:48:47Z,42.805,6.029,13.3028,4.60089,2470.693,2023-7-13T09:51:04Z
2023-07-13T07:51:50Z,42.805,6.029,13.3029,4.60092,2470.73,2023-7-13T09:54:07Z
2023-07-13T07:54:53Z,42.805,6.029,13.3025,4.60091,2470.693,2023-7-13T09:57:10Z
2023-07-13T07:57:56Z,42.805,6.029,13.3031,4.60092,2470.693,2023-7-13T10:00:13Z
2023-07-13T08:01:00Z,42.805,6.029,13.3025,4.60087,2470.707,2023-7-13T10:03:16Z
2023-07-13T08:04:03Z,42.805,6.029,13.3031,4.60089,2470.646,2023-7-13T10:06:19Z
2023-07-13T08:07:06Z,42.805,6.029,13.3024,4.60088,2470.646,2023-7-13T10:09:22Z
2023-07-13T08:10:09Z,42.805,6.029,13.3030,4.60088,2470.646,2023-7-13T10:12:25Z
2023-07-13T08:13:12Z,42.805,6.029,13.3032,4.60090,2470.684,2023-7-13T10:15:28Z
2023-07-13T08:16:15Z,42.805,6.029,13.3028,4.60088,2470.624,2023-7-13T10:18:31Z
2023-07-13T08:19:18Z,42.805,6.029,13.3026,4.60088,2470.67,2023-7-13T10:21:35Z
2023-07-13T08:22:21Z,42.805,6.029,13.3029,4.60089,2470.684,2023-7-13T10:24:38Z
2023-07-13T08:25:24Z,42.805,6.029,13.3026,4.60088,2470.684,2023-7-13T10:27:41Z
2023-07-13T08:28:27Z,42.805,6.029,13.3028,4.60087,2470.661,2023-7-13T10:30:44Z
2023-07-13T08:31:31Z,42.805,6.029,13.3028,4.60087,2470.67,2023-7-13T10:33:47Z
2023-07-13T08:34:34Z,42.805,6.029,13.3036,4.60087,2470.693,2023-7-13T10:36:50Z
2023-07-13T08:37:37Z,42.805,6.029,13.3030,4.60089,2470.67,2023-7-13T10:39:53Z
2023-07-13T08:40:40Z,42.805,6.029,13.3029,4.60092,2470.661,2023-7-13T10:42:56Z
2023-07-13T08:43:43Z,42.805,6.029,13.3029,4.60090,2470.646,2023-7-13T10:45:59Z
2023-07-13T08:46:46Z,42.805,6.029,13.3031,4.60088,2470.646,2023-7-13T10:49:03Z
2023-07-13T08:49:49Z,42.805,6.029,13.3026,4.60089,2470.646,2023-7-13T10:52:06Z
2023-07-13T08:52:52Z,42.805,6.029,13.3029,4.60087,2470.67,2023-7-13T10:55:09Z
2023-07-13T08:55:55Z,42.805,6.029,13.3027,4.60089,2470.67,2023-7-13T10:58:12Z
2023-07-13T08:58:58Z,42.805,6.029,13.3026,4.60087,2470.661,2023-7-13T11:01:15Z
2023-07-13T09:02:01Z,42.805,6.029,13.3028,4.60088,2470.67,2023-7-13T11:04:18Z
2023-07-13T09:05:05Z,42.805,6.029,13.3029,4.60087,2470.637,2023-7-13T11:07:21Z
2023-07-13T09:08:08Z,42.805,6.029,13.3030,4.60087,2470.624,2023-7-13T11:10:24Z
2023-07-13T09:11:11Z,42.805,6.029,13.3027,4.60091,2470.646,2023-7-13T11:13:27Z
2023-07-13T09:14:14Z,42.805,6.029,13.3027,4.60095,2470.646,2023-7-13T11:16:30Z
2023-07-13T09:17:17Z,42.805,6.029,13.3031,4.60087,2470.707,2023-7-13T11:19:33Z
2023-07-13T09:20:20Z,42.805,6.029,13.3027,4.60087,2470.684,2023-7-13T11:22:37Z
2023-07-13T09:23:23Z,42.805,6.029,13.3029,4.60089,2470.633,2023-7-13T11:25:40Z
2023-07-13T09:26:26Z,42.805,6.029,13.3033,4.60095,2470.661,2023-7-13T11:28:43Z
2023-07-13T09:29:29Z,42.805,6.029,13.3027,4.60087,2470.624,2023-7-13T11:31:46Z
2023-07-13T09:32:32Z,42.805,6.029,13.3029,4.60087,2470.637,2023-7-13T11:34:49Z
2023-07-13T09:35:35Z,42.805,6.029,13.3028,4.60094,2470.646,2023-7-13T11:37:52Z
2023-07-13T09:38:39Z,42.805,6.029,13.3031,4.60089,2470.646,2023-7-13T11:40:55Z
2023-07-13T09:41:42Z,42.805,6.029,13.3029,4.60087,2470.646,2023-7-13T11:43:58Z
2023-07-13T09:44:45Z,42.805,6.029,13.3027,4.60087,2470.637,2023-7-13T11:47:01Z
2023-07-13T09:47:48Z,42.805,6.029,13.3035,4.60088,2470.624,2023-7-13T11:50:04Z
2023-07-13T09:50:51Z,42.805,6.029,13.3031,4.60088,2470.661,2023-7-13T11:53:07Z
2023-07-13T09:53:54Z,42.805,6.029,13.3030,4.60088,2470.624,2023-7-13T11:56:11Z
2023-07-13T09:56:57Z,42.805,6.029,13.3029,4.60089,2470.6,2023-7-13T11:59:14Z
2023-07-13T10:00:00Z,42.805,6.029,13.3026,4.60090,2470.614,2023-7-13T12:02:17Z
2023-07-13T10:03:03Z,42.805,6.029,13.3027,4.60088,2470.6,2023-7-13T12:05:20Z
2023-07-13T10:06:06Z,42.805,6.029,13.3028,4.60088,2470.624,2023-7-13T12:08:23Z
2023-07-13T10:09:09Z,42.805,6.029,13.3033,4.60089,2470.707,2023-7-13T12:11:26Z
2023-07-13T10:12:13Z,42.805,6.029,13.3026,4.60091,2470.646,2023-7-13T12:14:29Z
2023-07-13T10:15:16Z,42.805,6.029,13.3029,4.60092,2470.637,2023-7-13T12:17:32Z
2023-07-13T10:18:19Z,42.805,6.029,13.3029,4.60097,2470.646,2023-7-13T12:20:35Z
2023-07-13T10:21:22Z,42.805,6.029,13.3030,4.60094,2470.637,2023-7-13T12:23:38Z
2023-07-13T10:24:25Z,42.805,6.029,13.3030,4.60093,2470.624,2023-7-13T12:26:41Z
2023-07-13T10:27:28Z,42.805,6.029,13.3031,4.60092,2470.6,2023-7-13T12:29:44Z
2023-07-13T10:30:29Z,42.805,6.029,13.3028,4.60088,2470.646,2023-7-13T12:32:46Z
2023-07-13T10:33:32Z,42.805,6.029,13.3027,4.60087,2470.577,2023-7-13T12:35:49Z
2023-07-13T10:36:35Z,42.805,6.029,13.3025,4.60088,2470.646,2023-7-13T12:38:52Z
2023-07-13T10:39:39Z,42.805,6.029,13.3029,4.60088,2470.624,2023-7-13T12:41:55Z
2023-07-13T10:42:42Z,42.805,6.029,13.3025,4.60089,2470.614,2023-7-13T12:44:58Z
2023-07-13T10:45:45Z,42.805,6.029,13.3029,4.60087,2470.637,2023-7-13T12:48:01Z
2023-07-13T10:48:48Z,42.805,6.029,13.3027,4.60089,2470.624,2023-7-13T12:51:04Z
2023-07-13T10:51:51Z,42.805,6.029,13.3026,4.60088,2470.637,2023-7-13T12:54:07Z
2023-07-13T10:54:54Z,42.805,6.029,13.3030,4.60087,2470.646,2023-7-13T12:57:10Z
2023-07-13T10:57:57Z,42.805,6.029,13.3029,4.60088,2470.67,2023-7-13T13:00:14Z
2023-07-13T11:01:00Z,42.805,6.029,13.3029,4.60087,2470.646,2023-7-13T13:03:17Z
2023-07-13T11:04:03Z,42.805,6.029,13.3029,4.60088,2470.6,2023-7-13T13:06:20Z
2023-07-13T11:07:06Z,42.805,6.029,13.3029,4.60088,2470.646,2023-7-13T13:09:23Z
2023-07-13T11:10:09Z,42.805,6.029,13.3028,4.60087,2470.624,2023-7-13T13:12:26Z
2023-07-13T11:13:12Z,42.805,6.029,13.3026,4.60088,2470.646,2023-7-13T13:15:29Z
2023-07-13T11:16:16Z,42.805,6.029,13.3024,4.60087,2470.624,2023-7-13T13:18:32Z
2023-07-13T11:19:19Z,42.805,6.029,13.3028,4.60088,2470.624,2023-7-13T13:21:35Z
2023-07-13T11:22:22Z,42.805,6.029,13.3027,4.60087,2470.624,2023-7-13T13:24:38Z
2023-07-13T11:25:25Z,42.805,6.029,13.3026,4.60088,2470.624,2023-7-13T13:27:41Z
2023-07-13T11:28:28Z,42.805,6.029,13.3031,4.60089,2470.614,2023-7-13T13:30:44Z
2023-07-13T11:31:31Z,42.805,6.029,13.3027,4.60089,2470.646,2023-7-13T13:33:48Z
2023-07-13T11:34:34Z,42.805,6.029,13.3028,4.60089,2470.661,2023-7-13T13:36:51Z
2023-07-13T11:37:37Z,42.805,6.029,13.3028,4.60089,2470.637,2023-7-13T13:39:54Z
2023-07-13T11:40:40Z,42.805,6.029,13.3029,4.60089,2470.661,2023-7-13T13:42:57Z
2023-07-13T11:43:43Z,42.805,6.029,13.3027,4.60088,2470.624,2023-7-13T13:46:00Z
2023-07-13T11:46:46Z,42.805,6.029,13.3030,4.60090,2470.624,2023-7-13T13:49:03Z
2023-07-13T11:49:50Z,42.805,6.029,13.3030,4.60092,2470.624,2023-7-13T13:52:06Z
2023-07-13T11:52:53Z,42.805,6.029,13.3026,4.60088,2470.637,2023-7-13T13:55:09Z
2023-07-13T11:55:56Z,42.805,6.029,13.3027,4.60089,2470.624,2023-7-13T13:58:12Z
2023-07-13T11:58:59Z,42.805,6.029,13.3029,4.60089,2470.6,2023-7-13T14:01:15Z
2023-07-13T12:02:02Z,42.805,6.029,13.3030,4.60090,2470.637,2023-7-13T14:04:18Z
2023-07-13T12:05:05Z,42.805,6.029,13.3029,4.60088,2470.661,2023-7-13T14:07:21Z
2023-07-13T12:08:08Z,42.805,6.029,13.3029,4.60088,2470.646,2023-7-13T14:10:25Z
2023-07-13T12:11:11Z,42.805,6.029,13.3029,4.60088,2470.646,2023-7-13T14:13:28Z
2023-07-13T12:14:14Z,42.805,6.029,13.3031,4.60088,2470.661,2023-7-13T14:16:31Z
2023-07-13T12:17:17Z,42.805,6.029,13.3028,4.60088,2470.67,2023-7-13T14:19:34Z
2023-07-13T12:20:20Z,42.805,6.029,13.3029,4.60090,2470.646,2023-7-13T14:22:37Z
2023-07-13T12:23:24Z,42.805,6.029,13.3029,4.60091,2470.646,2023-7-13T14:25:40Z
2023-07-13T12:26:27Z,42.805,6.029,13.3028,4.60089,2470.661,2023-7-13T14:28:43Z
2023-07-13T12:29:30Z,42.805,6.029,13.3025,4.60089,2470.684,2023-7-13T14:31:46Z
2023-07-13T12:32:33Z,42.805,6.029,13.3029,4.60088,2470.646,2023-7-13T14:34:49Z
2023-07-13T12:35:36Z,42.805,6.029,13.3030,4.60089,2470.67,2023-7-13T14:37:52Z
2023-07-13T12:38:39Z,42.805,6.029,13.3029,4.60089,2470.661,2023-7-13T14:40:55Z
2023-07-13T12:41:42Z,42.805,6.029,13.3028,4.60089,2470.684,2023-7-13T14:43:59Z
2023-07-13T12:44:45Z,42.805,6.029,13.3030,4.60088,2470.646,2023-7-13T14:47:02Z
2023-07-13T12:47:48Z,42.805,6.029,13.3029,4.60090,2470.693,2023-7-13T14:50:05Z
2023-07-13T12:50:51Z,42.805,6.029,13.3031,4.60098,2470.67,2023-7-13T14:53:08Z
2023-07-13T12:53:54Z,42.805,6.029,13.3029,4.60088,2470.646,2023-7-13T14:56:11Z
2023-07-13T12:56:58Z,42.805,6.029,13.3029,4.60091,2470.684,2023-7-13T14:59:14Z
2023-07-13T13:00:01Z,42.805,6.029,13.3031,4.60091,2470.67,2023-7-13T15:02:17Z
2023-07-13T13:03:04Z,42.805,6.029,13.3029,4.60092,2470.693,2023-7-13T15:05:20Z
2023-07-13T13:06:07Z,42.805,6.029,13.3032,4.60090,2470.67,2023-7-13T15:08:23Z
2023-07-13T13:09:10Z,42.805,6.029,13.3029,4.60089,2470.67,2023-7-13T15:11:26Z
2023-07-13T13:12:13Z,42.805,6.029,13.3026,4.60089,2470.67,2023-7-13T15:14:29Z
2023-07-13T13:15:16Z,42.805,6.029,13.3030,4.60091,2470.707,2023-7-13T15:17:33Z
2023-07-13T13:18:19Z,42.805,6.029,13.3026,4.60090,2470.67,2023-7-13T15:20:36Z
2023-07-13T13:21:22Z,42.805,6.029,13.3031,4.60089,2470.646,2023-7-13T15:23:39Z
2023-07-13T13:24:25Z,42.805,6.029,13.3029,4.60089,2470.693,2023-7-13T15:26:42Z
2023-07-13T13:27:28Z,42.805,6.029,13.3030,4.60090,2470.693,2023-7-13T15:29:45Z
2023-07-13T13:30:31Z,42.805,6.029,13.3028,4.60092,2470.693,2023-7-13T15:32:48Z
2023-07-13T13:33:35Z,42.805,6.029,13.3030,4.60089,2470.684,2023-7-13T15:35:51Z
2023-07-13T13:36:38Z,42.805,6.029,13.3029,4.60091,2470.693,2023-7-13T15:38:54Z
2023-07-13T13:39:41Z,42.805,6.029,13.3033,4.60090,2470.717,2023-7-13T15:41:57Z
2023-07-13T13:42:44Z,42.805,6.029,13.3028,4.60089,2470.684,2023-7-13T15:45:00Z
2023-07-13T13:45:47Z,42.805,6.029,13.3028,4.60089,2470.717,2023-7-13T15:48:03Z
2023-07-13T13:48:50Z,42.805,6.029,13.3029,4.60089,2470.693,2023-7-13T15:51:07Z
2023-07-13T13:51:53Z,42.805,6.029,13.3026,4.60089,2470.717,2023-7-13T15:54:10Z
2023-07-13T13:54:56Z,42.805,6.029,13.3030,4.60089,2470.693,2023-7-13T15:57:13Z
2023-07-13T13:57:59Z,42.805,6.029,13.3029,4.60090,2470.717,2023-7-13T16:00:16Z
2023-07-13T14:01:02Z,42.805,6.029,13.3029,4.60090,2470.693,2023-7-13T16:03:19Z
2023-07-13T14:04:05Z,42.805,6.029,13.3032,4.60092,2470.693,2023-7-13T16:06:22Z
2023-07-13T14:07:09Z,42.805,6.029,13.3027,4.60091,2470.693,2023-7-13T16:09:25Z
2023-07-13T14:10:12Z,42.805,6.029,13.3030,4.60089,2470.74,2023-7-13T16:12:28Z
2023-07-13T14:13:15Z,42.805,6.029,13.3029,4.60089,2470.754,2023-7-13T16:15:31Z
2023-07-13T14:16:18Z,42.805,6.029,13.3026,4.60088,2470.74,2023-7-13T16:18:34Z
2023-07-13T14:19:21Z,42.805,6.029,13.3026,4.60089,2470.703,2023-7-13T16:21:37Z
2023-07-13T14:22:24Z,42.805,6.029,13.3030,4.60090,2470.693,2023-7-13T16:24:40Z
2023-07-13T14:25:27Z,42.805,6.029,13.3029,4.60089,2470.74,2023-7-13T16:27:44Z
2023-07-13T14:28:30Z,42.805,6.029,13.3031,4.60088,2470.754,2023-7-13T16:30:47Z
2023-07-13T14:31:32Z,42.805,6.029,13.3028,4.60089,2470.717,2023-7-13T16:33:48Z
2023-07-13T14:34:35Z,42.805,6.029,13.3031,4.60089,2470.754,2023-7-13T16:36:51Z
2023-07-13T14:37:38Z,42.805,6.029,13.3031,4.60089,2470.73,2023-7-13T16:39:55Z
2023-07-13T14:40:41Z,42.805,6.029,13.3029,4.60090,2470.754,2023-7-13T16:42:58Z
2023-07-13T14:43:44Z,42.805,6.029,13.3028,4.60089,2470.707,2023-7-13T16:46:01Z
2023-07-13T14:46:47Z,42.805,6.029,13.3026,4.60092,2470.717,2023-7-13T16:49:04Z
2023-07-13T14:49:50Z,42.805,6.029,13.3031,4.60090,2470.717,2023-7-13T16:52:07Z
2023-07-13T14:52:54Z,42.805,6.029,13.3027,4.60090,2470.717,2023-7-13T16:55:10Z
2023-07-13T14:55:57Z,42.805,6.029,13.3030,4.60090,2470.74,2023-7-13T16:58:13Z
2023-07-13T14:59:00Z,42.805,6.029,13.3026,4.60088,2470.73,2023-7-13T17:01:16Z
2023-07-13T15:02:03Z,42.805,6.029,13.3028,4.60088,2470.763,2023-7-13T17:04:19Z
2023-07-13T15:05:06Z,42.805,6.029,13.3024,4.60090,2470.73,2023-7-13T17:07:22Z
2023-07-13T15:08:09Z,42.805,6.029,13.3028,4.60089,2470.74,2023-7-13T17:10:25Z
2023-07-13T15:11:12Z,42.805,6.029,13.3031,4.60089,2470.763,2023-7-13T17:13:29Z
2023-07-13T15:14:15Z,42.805,6.029,13.3029,4.60090,2470.74,2023-7-13T17:16:32Z